Terminal Aerodrome Forecast
Issued by NWS

Home | Current Version | Previous Version | Text Only | Print | Product List | Glossary On
Versions: 1 2 3 4 5 6 7 8 9 10 11 12 13 14 15 16 17 18 19 20 21
000
FTUS43 KLSX 251000 AAC
TAFUIN
TAF AMD
KUIN 251036Z 2511/2606 12010KT 5SM -SHRA VCTS OVC015CB
     FM251600 07012KT 5SM -RA BR OVC007
     FM252300 03014KT P6SM OVC012=

USA.gov is the U.S. government's official web portal to all federal, state and local government web resources and services.